"read_dt","SO2 (ppb)","flags","PMT voltage (V)","lamp voltage (V)","lamp intensity (Hz)","internal temp (C)","react chamber temp (C)","sample flow (l/min)","pres (mmHg)","SO2 bkg (ppb)","SO2 coefficient"
2016-10-07 08:18:00,2431E-3,5C000005,-0724,0821,bad,013.9,016.1,0.481,751.3,01.17,0.508
2016-10-07 08:19:00,2532E-3,5C000005,-0724,0821,12196,014.0,017.0,0.480,751.6,01.17,0.508
2016-10-07 08:20:00,2526E-3,5C000005,-0724,0820,12185,014.1,018.1,0.480,751.4,01.17,0.508
2016-10-07 08:21:00,2510E-3,5C000005,-0724,0822,12349,014.2,019.2,0.479,751.6,01.17,0.508
2016-10-07 08:22:00,2546E-3,5C000005,-0724,0822,12161,014.4,020.3,0.478,751.6,01.17,0.508
2016-10-07 08:23:00,2562E-3,5C000005,-0724,0823,12142,014.6,021.3,0.478,751.6,01.17,0.508
2016-10-07 08:24:00,2527E-3,5C000005,-0724,0823,12257,014.7,022.4,0.477,751.7,01.17,0.508
2016-10-07 08:25:00,2448E-3,5C000005,-0724,0823,12227,014.9,023.4,0.476,751.6,01.17,0.508
2016-10-07 08:26:00,2401E-3,5C000004,-0724,0823,12334,015.1,024.3,0.476,751.6,01.17,0.508
2016-10-07 08:27:00,2418E-3,5C000004,-0724,0823,12152,015.3,025.2,0.475,751.7,01.17,0.508
2016-10-07 08:28:00,2275E-3,5C000004,-0724,0825,10960,015.5,026.1,0.475,751.6,01.17,0.508
2016-10-07 08:29:00,2261E-3,5C000004,-0724,0825,12331,015.7,027.0,0.474,751.6,01.17,0.508
2016-10-07 08:30:00,2202E-3,5C000004,-0724,0827,12270,015.9,027.8,0.473,751.5,01.17,0.508
2016-10-07 08:31:00,2279E-3,5C000004,-0724,0825,12330,016.1,028.6,0.473,751.6,01.17,0.508
2016-10-07 08:32:00,2279E-3,5C000004,-0724,0826,12099,016.4,029.3,0.473,751.5,01.17,0.508
2016-10-07 08:33:00,2309E-3,5C000004,-0724,0826,12276,016.6,030.1,0.472,751.5,01.17,0.508
2016-10-07 08:34:00,2150E-3,5C000004,-0724,0826,12316,016.8,030.8,0.471,751.5,01.17,0.508
2016-10-07 08:35:00,2154E-3,5C000004,-0724,0828,12341,017.0,031.5,0.471,751.5,01.17,0.508
2016-10-07 08:36:00,2303E-3,5C000004,-0724,0827,12253,017.3,032.2,0.471,751.4,01.17,0.508
2016-10-07 08:37:00,2155E-3,5C000004,-0724,0826,12321,017.5,032.8,0.470,751.4,01.17,0.508
2016-10-07 08:38:00,2270E-3,5C000004,-0724,0829,12155,017.7,033.5,0.470,751.4,01.17,0.508
2016-10-07 08:39:00,2290E-3,5C000004,-0724,0829,12211,018.0,034.1,0.469,751.4,01.17,0.508
2016-10-07 08:40:00,2183E-3,5C000004,-0724,0827,12314,018.2,034.7,0.469,751.4,01.17,0.508
2016-10-07 08:41:00,2076E-3,5C000004,-0724,0828,12117,018.4,035.3,0.469,751.3,01.17,0.508
2016-10-07 08:42:00,2091E-3,5C000004,-0724,0828,12200,018.6,035.8,0.469,751.3,01.17,0.508
2016-10-07 08:43:00,2144E-3,5C000004,-0724,0829,12233,018.8,036.4,0.468,751.3,01.17,0.508
2016-10-07 08:44:00,1992E-3,5C000004,-0724,0828,12274,019.0,036.9,0.468,751.4,01.17,0.508
2016-10-07 08:45:00,2235E-3,5C000004,-0724,0832,12407,019.3,037.4,0.467,751.4,01.17,0.508
2016-10-07 08:46:00,2386E-3,5C000004,-0724,0833,12403,019.5,038.0,0.467,751.4,01.17,0.508
2016-10-07 08:47:00,2339E-3,5C000004,-0724,0829,12178,019.7,038.5,0.467,751.4,01.17,0.508
2016-10-07 08:48:00,2511E-3,5C000004,-0724,0829,12163,019.9,039.0,0.467,751.3,01.17,0.508
2016-10-07 08:49:00,2741E-3,5C000004,-0724,0829,12112,020.1,039.5,0.466,751.3,01.17,0.508
2016-10-07 08:50:00,2994E-3,5C000004,-0724,0829,12268,020.3,039.9,0.466,751.3,01.17,0.508
2016-10-07 08:51:00,3349E-3,5C000004,-0724,0830,12275,020.5,040.4,0.465,751.1,01.17,0.508
2016-10-07 08:52:00,3292E-3,5C000004,-0724,0830,12211,020.7,040.9,0.466,751.0,01.17,0.508
2016-10-07 08:53:00,3111E-3,5C000004,-0724,0830,12392,020.9,041.3,0.465,751.0,01.17,0.508
2016-10-07 08:54:00,2400E-3,5C000004,-0724,0830,12201,021.0,041.7,0.465,751.0,01.17,0.508
2016-10-07 08:55:00,2043E-3,5C000004,-0724,0830,12236,021.2,042.2,0.465,751.0,01.17,0.508
2016-10-07 08:56:00,2031E-3,5C000004,-0724,0829,12313,021.4,042.6,0.465,751.0,01.17,0.508
2016-10-07 08:57:00,1996E-3,5C000000,-0724,0830,12113,021.6,043.0,0.464,750.9,01.17,0.508
2016-10-07 08:58:00,2015E-3,5C000000,-0724,0830,12357,021.8,043.4,0.464,750.9,01.17,0.508
2016-10-07 08:59:00,1867E-3,5C000000,-0724,0830,12168,022.0,043.8,0.464,751.0,01.17,0.508
2016-10-07 09:00:00,2020E-3,5C000000,-0724,0830,12111,022.1,044.2,0.463,750.9,01.17,0.508
2016-10-07 09:01:00,2061E-3,5C000000,-0724,0830,12178,022.3,044.6,0.463,750.9,01.17,0.508
2016-10-07 09:02:00,2250E-3,5C000000,-0724,0829,12246,022.5,045.0,0.463,750.7,01.17,0.508
2016-10-07 09:03:00,3270E-3,5C000000,-0724,0830,12243,022.6,045.3,0.463,750.8,01.17,0.508
2016-10-07 09:04:00,3873E-3,5C000000,-0724,0833,12167,022.8,045.5,0.463,750.8,01.17,0.508
2016-10-07 09:05:00,3755E-3,5C000000,-0724,0830,12265,023.0,045.5,0.462,750.7,01.17,0.508
2016-10-07 09:06:00,3859E-3,5C000000,-0724,0830,12192,023.1,045.5,0.462,750.7,01.17,0.508
2016-10-07 09:07:00,3846E-3,5C000000,-0724,0829,12099,023.3,045.5,0.461,750.7,01.17,0.508
2016-10-07 09:08:00,2967E-3,5C000000,-0724,0829,12145,023.4,045.5,0.462,750.7,01.17,0.508
2016-10-07 09:09:00,3085E-3,5C000000,-0724,0830,12238,023.6,045.5,0.462,750.7,01.17,0.508
2016-10-07 09:10:00,2258E-3,5C000000,-0724,0830,12270,023.7,045.5,0.461,750.7,01.17,0.508
2016-10-07 09:11:00,1845E-3,5C000000,-0724,0830,12259,023.8,045.5,0.461,750.6,01.17,0.508
2016-10-07 09:12:00,1621E-3,5C000000,-0724,0829,12206,024.0,045.5,0.461,750.6,01.17,0.508
2016-10-07 09:13:00,1738E-3,5C000000,-0724,0829,12099,024.1,045.4,0.461,750.6,01.17,0.508
2016-10-07 09:14:00,1761E-3,5C000000,-0724,0829,12232,024.2,045.4,0.460,750.6,01.17,0.508
2016-10-07 09:15:00,1678E-3,5C000000,-0724,0829,12171,024.4,045.5,0.460,750.5,01.17,0.508
2016-10-07 09:16:00,1652E-3,5C000000,-0724,0829,12085,024.5,045.4,0.461,750.6,01.17,0.508
2016-10-07 09:17:00,1482E-3,5C000000,-0724,0830,12233,024.6,045.4,0.460,750.5,01.17,0.508
2016-10-07 09:18:00,1751E-3,5C000000,-0724,0829,12228,024.7,045.4,0.460,750.6,01.17,0.508
2016-10-07 09:19:00,1491E-3,5C000000,-0724,0829,12304,024.8,045.4,0.460,750.6,01.17,0.508
2016-10-07 09:20:00,1700E-3,5C000000,-0724,0829,12211,024.9,045.4,0.459,750.5,01.17,0.508
2016-10-07 09:21:00,1697E-3,5C000000,-0724,0828,12244,025.1,045.4,0.459,750.5,01.17,0.508
2016-10-07 09:22:00,1605E-3,5C000000,-0724,0829,12256,025.2,045.4,0.460,750.5,01.17,0.508
2016-10-07 09:23:00,1585E-3,5C000000,-0724,0828,12246,025.3,045.4,0.459,750.4,01.17,0.508
2016-10-07 09:24:00,1489E-3,5C000000,-0724,0828,12096,025.4,045.4,0.459,750.4,01.17,0.508
2016-10-07 09:25:00,1518E-3,5C000000,-0724,0827,12323,025.5,045.4,0.459,750.4,01.17,0.508
2016-10-07 09:26:00,1617E-3,5C000000,-0724,0829,12187,025.6,045.4,0.459,750.4,01.17,0.508
2016-10-07 09:27:00,1773E-3,5C000000,-0724,0829,12159,025.7,045.4,0.459,750.4,01.17,0.508
2016-10-07 09:28:00,1591E-3,5C000000,-0724,0829,12180,025.8,045.4,0.458,750.4,01.17,0.508
2016-10-07 09:29:00,1697E-3,5C000000,-0724,0829,12341,025.8,045.4,0.459,750.4,01.17,0.508
2016-10-07 09:30:00,1530E-3,5C000000,-0724,0829,12144,025.9,045.4,0.458,750.4,01.17,0.508
2016-10-07 09:31:00,1511E-3,5C000000,-0724,0828,12185,026.0,045.4,0.459,750.4,01.17,0.508
2016-10-07 09:32:00,1690E-3,5C000000,-0724,0828,12035,026.1,045.4,0.458,750.4,01.17,0.508
2016-10-07 09:33:00,1572E-3,5C000000,-0724,0828,12114,026.2,045.4,0.458,750.4,01.17,0.508
2016-10-07 09:34:00,1527E-3,5C000000,-0724,0828,12204,026.3,045.4,0.458,750.4,01.17,0.508
2016-10-07 09:35:00,1467E-3,5C000000,-0724,0827,12293,026.4,045.4,0.458,750.4,01.17,0.508
2016-10-07 09:36:00,1521E-3,5C000000,-0724,0828,12273,026.4,045.4,0.458,750.4,01.17,0.508
2016-10-07 09:37:00,1574E-3,5C000000,-0724,0828,12293,026.5,045.4,0.457,750.4,01.17,0.508
2016-10-07 09:38:00,1587E-3,5C000000,-0724,0828,12334,026.6,045.4,0.458,750.3,01.17,0.508
2016-10-07 09:39:00,1550E-3,5C000000,-0724,0828,12318,026.6,045.4,0.457,750.3,01.17,0.508
2016-10-07 09:40:00,1517E-3,5C000000,-0724,0828,12213,026.7,045.4,0.458,750.3,01.17,0.508
2016-10-07 09:41:00,1570E-3,5C000000,-0724,0827,12286,026.8,045.4,0.457,750.3,01.17,0.508
2016-10-07 09:42:00,1642E-3,5C000000,-0724,0828,12255,026.9,045.4,0.458,750.3,01.17,0.508
2016-10-07 09:43:00,1466E-3,5C000000,-0724,0828,12089,026.9,045.4,0.457,750.3,01.17,0.508
2016-10-07 09:44:00,1581E-3,5C000000,-0724,0828,12056,027.0,045.4,0.457,750.4,01.17,0.508
2016-10-07 09:45:00,1689E-3,5C000000,-0724,0828,12280,027.1,045.4,0.457,750.3,01.17,0.508
2016-10-07 09:46:00,1602E-3,5C000000,-0724,0827,12199,027.1,045.4,0.457,750.3,01.17,0.508
2016-10-07 09:47:00,1601E-3,5C000000,-0724,0828,12264,027.2,045.5,0.457,750.3,01.17,0.508
2016-10-07 09:48:00,1593E-3,5C000000,-0724,0828,12346,027.2,045.4,0.457,750.2,01.17,0.508
2016-10-07 09:49:00,1504E-3,5C000000,-0724,0828,12213,027.3,045.4,0.456,750.3,01.17,0.508
2016-10-07 09:50:00,1549E-3,5C000000,-0724,0828,12178,027.4,045.4,0.457,750.3,01.17,0.508
2016-10-07 09:51:00,1535E-3,5C000000,-0724,0828,12101,027.4,045.4,0.456,750.2,01.17,0.508
2016-10-07 09:52:00,1484E-3,5C000000,-0724,0828,12090,027.4,045.4,0.457,750.2,01.17,0.508
2016-10-07 09:53:00,1406E-3,5C000000,-0724,0828,12292,027.5,045.4,0.456,750.3,01.17,0.508
2016-10-07 09:54:00,1546E-3,5C000000,-0724,0827,12221,027.6,045.5,0.456,750.2,01.17,0.508
2016-10-07 09:55:00,1598E-3,5C000000,-0724,0828,12084,027.6,045.5,0.456,750.3,01.17,0.508
2016-10-07 09:56:00,1570E-3,5C000000,-0724,0827,12175,027.6,045.4,0.456,750.3,01.17,0.508
2016-10-07 09:57:00,1666E-3,5C000000,-0724,0828,12394,027.7,045.4,0.456,750.4,01.17,0.508
2016-10-07 09:58:00,1559E-3,5C000000,-0724,0828,12326,027.7,045.5,0.456,750.3,01.17,0.508
2016-10-07 09:59:00,1599E-3,5C000000,-0724,0827,12181,027.8,045.5,0.455,750.3,01.17,0.508
2016-10-07 10:00:00,1584E-3,5C000000,-0724,0828,11999,027.8,045.4,0.456,750.3,01.17,0.508
2016-10-07 10:01:00,1512E-3,5C000000,-0724,0827,12239,027.9,045.5,0.456,750.3,01.17,0.508
2016-10-07 10:02:00,1479E-3,5C000000,-0724,0828,12252,027.9,045.5,0.456,750.3,01.17,0.508
2016-10-07 10:03:00,1706E-3,5C000000,-0724,0827,12219,028.0,045.4,0.455,750.3,01.17,0.508
2016-10-07 10:04:00,1580E-3,5C000000,-0724,0827,12212,028.0,045.5,0.456,750.3,01.17,0.508
2016-10-07 10:05:00,1503E-3,5C000000,-0724,0828,12112,028.0,045.5,0.455,750.2,01.17,0.508
2016-10-07 10:06:00,1426E-3,5C000000,-0724,0829,12461,028.1,045.5,0.456,750.2,01.17,0.508
2016-10-07 10:07:00,1464E-3,5C000000,-0724,0827,12294,028.1,045.5,0.455,750.2,01.17,0.508
2016-10-07 10:08:00,1529E-3,5C000000,-0724,0828,12269,028.2,045.4,0.456,750.2,01.17,0.508
2016-10-07 10:09:00,1581E-3,5C000000,-0724,0828,12070,028.2,045.5,0.455,750.3,01.17,0.508
2016-10-07 10:10:00,1495E-3,5C000000,-0724,0828,12161,028.2,045.5,0.456,750.2,01.17,0.508
2016-10-07 10:11:00,1625E-3,5C000000,-0724,0828,12134,028.3,045.5,0.455,750.3,01.17,0.508
2016-10-07 10:12:00,1573E-3,5C000000,-0724,0828,12071,028.3,045.5,0.455,750.2,01.17,0.508
2016-10-07 10:13:00,1443E-3,5C000000,-0724,0828,11953,028.3,045.5,0.455,750.2,01.17,0.508
2016-10-07 10:14:00,1618E-3,5C000000,-0724,0827,12181,028.4,045.5,0.455,750.2,01.17,0.508
2016-10-07 10:15:00,1711E-3,5C000000,-0724,0827,12254,028.4,045.5,0.455,750.2,01.17,0.508
2016-10-07 10:16:00,1583E-3,5C000000,-0724,0826,12196,028.4,045.5,0.455,750.2,01.17,0.508
2016-10-07 10:17:00,1574E-3,5C000000,-0724,0828,12093,028.5,045.5,0.455,750.2,01.17,0.508
2016-10-07 10:18:00,1565E-3,5C000000,-0724,0827,12291,028.5,045.5,0.455,750.2,01.17,0.508
2016-10-07 10:19:00,1649E-3,5C000000,-0724,0827,12212,028.5,045.5,0.455,750.2,01.17,0.508
2016-10-07 10:20:00,1604E-3,5C000000,-0724,0828,12087,028.6,045.5,0.455,750.2,01.17,0.508
2016-10-07 10:21:00,1561E-3,5C000000,-0724,0828,12314,028.6,045.5,0.455,750.2,01.17,0.508
2016-10-07 10:22:00,1539E-3,5C000000,-0724,0827,12209,028.6,045.5,0.455,750.2,01.17,0.508
2016-10-07 10:23:00,1599E-3,5C000000,-0724,0827,12318,028.7,045.5,0.455,750.2,01.17,0.508
2016-10-07 10:24:00,1622E-3,5C000000,-0724,0828,12244,028.7,045.5,0.454,750.2,01.17,0.508
2016-10-07 10:25:00,1474E-3,5C000000,-0724,0828,12191,028.7,045.5,0.455,750.2,01.17,0.508
2016-10-07 10:26:00,1370E-3,5C000000,-0724,0827,12177,028.7,045.5,0.455,750.2,01.17,0.508
2016-10-07 10:27:00,1510E-3,5C000000,-0724,0827,12270,028.8,045.5,0.455,750.2,01.17,0.508
2016-10-07 10:28:00,1597E-3,5C000000,-0724,0827,12159,028.8,045.5,0.455,750.3,01.17,0.508
2016-10-07 10:29:00,1610E-3,5C000000,-0724,0827,12174,028.8,045.5,0.454,750.3,01.17,0.508
2016-10-07 10:30:00,1628E-3,5C000000,-0724,0828,12167,028.9,045.5,0.455,750.3,01.17,0.508
2016-10-07 10:31:00,1644E-3,5C000000,-0724,0827,12210,028.9,045.5,0.454,750.3,01.17,0.508
2016-10-07 10:32:00,1750E-3,5C000000,-0724,0828,12270,028.9,045.5,0.455,750.2,01.17,0.508
2016-10-07 10:33:00,2127E-3,5C000000,-0724,0828,12151,028.9,045.5,0.454,750.3,01.17,0.508
2016-10-07 10:34:00,2123E-3,5C000000,-0724,0827,12237,029.0,045.5,0.454,750.3,01.17,0.508
2016-10-07 10:35:00,2228E-3,5C000000,-0724,0827,12243,029.0,045.5,0.455,750.2,01.17,0.508
2016-10-07 10:36:00,2050E-3,5C000000,-0724,0828,12247,029.0,045.5,0.454,750.3,01.17,0.508
2016-10-07 10:37:00,2422E-3,5C000000,-0724,0827,12333,029.0,045.5,0.455,750.2,01.17,0.508
2016-10-07 10:38:00,2346E-3,5C000000,-0724,0827,12157,029.1,045.5,0.454,750.2,01.17,0.508
2016-10-07 10:39:00,2333E-3,5C000000,-0724,0827,12362,029.1,045.5,0.454,750.2,01.17,0.508
2016-10-07 10:40:00,2724E-3,5C000000,-0724,0827,12220,029.1,045.5,0.454,750.2,01.17,0.508
2016-10-07 10:41:00,2850E-3,5C000000,-0724,0826,12048,029.1,045.5,0.454,750.2,01.17,0.508
2016-10-07 10:42:00,2853E-3,5C000000,-0724,0827,12177,029.2,045.5,0.454,750.2,01.17,0.508
2016-10-07 10:43:00,2736E-3,5C000000,-0724,0827,12118,029.2,045.5,0.454,750.2,01.17,0.508
2016-10-07 10:44:00,2476E-3,5C000000,-0724,0826,11981,029.2,045.5,0.454,750.2,01.17,0.508
2016-10-07 10:45:00,2457E-3,5C000000,-0724,0827,12174,029.2,045.5,0.454,750.2,01.17,0.508
2016-10-07 10:46:00,2286E-3,5C000000,-0724,0827,12122,029.2,045.5,0.454,750.2,01.17,0.508
2016-10-07 10:47:00,2393E-3,5C000000,-0724,0826,12221,029.3,045.5,0.454,750.2,01.17,0.508
2016-10-07 10:48:00,2129E-3,5C000000,-0724,0827,12200,029.3,045.5,0.454,750.2,01.17,0.508
2016-10-07 10:49:00,1885E-3,5C000000,-0724,0827,12330,029.3,045.5,0.454,750.2,01.17,0.508
2016-10-07 10:50:00,1702E-3,5C000000,-0724,0827,12363,029.3,045.5,0.454,750.2,01.17,0.508
2016-10-07 10:51:00,1895E-3,5C000000,-0724,0827,12286,029.3,045.5,0.454,750.3,01.17,0.508
2016-10-07 10:52:00,1728E-3,5C000000,-0724,0827,12234,029.4,045.5,0.454,750.3,01.17,0.508
2016-10-07 10:53:00,1970E-3,5C000000,-0724,0827,12301,029.4,045.5,0.454,750.2,01.17,0.508
2016-10-07 10:54:00,2137E-3,5C000000,-0724,0827,12155,029.4,045.5,0.454,750.2,01.17,0.508
2016-10-07 10:55:00,1933E-3,5C000000,-0724,0828,12259,029.4,045.5,0.454,750.2,01.17,0.508
2016-10-07 10:56:00,1648E-3,5C000000,-0724,0827,12199,029.4,045.5,0.454,750.2,01.17,0.508
2016-10-07 10:57:00,1867E-3,5C000000,-0724,0827,12210,029.5,045.5,0.454,750.2,01.17,0.508
2016-10-07 10:58:00,1798E-3,5C000000,-0724,0827,12078,029.5,045.5,0.453,750.2,01.17,0.508
2016-10-07 10:59:00,1782E-3,5C000000,-0724,0828,12342,029.5,045.5,0.454,750.2,01.17,0.508
2016-10-07 11:00:00,1874E-3,5C000000,-0724,0828,12264,029.5,045.5,0.453,750.2,01.17,0.508
2016-10-07 11:01:00,1886E-3,5C000000,-0724,0827,12394,029.5,045.5,0.454,750.2,01.17,0.508
2016-10-07 11:02:00,1719E-3,5C000000,-0724,0827,12339,029.6,045.5,0.454,750.2,01.17,0.508
2016-10-07 11:03:00,1864E-3,5C000000,-0724,0826,12111,029.6,045.5,0.453,750.2,01.17,0.508
2016-10-07 11:04:00,1800E-3,5C000000,-0724,0827,12267,029.6,045.5,0.454,750.2,01.17,0.508
2016-10-07 11:05:00,1639E-3,5C000000,-0724,0827,11154,029.6,045.5,0.454,750.2,01.17,0.508
2016-10-07 11:06:00,1612E-3,5C000000,-0724,0828,12302,029.6,045.5,0.453,750.2,01.17,0.508
2016-10-07 11:07:00,1725E-3,5C000000,-0724,0828,12207,029.6,045.5,0.454,750.2,01.17,0.508
2016-10-07 11:08:00,1541E-3,5C000000,-0724,0826,12279,029.7,045.5,0.453,750.2,01.17,0.508
2016-10-07 11:09:00,1685E-3,5C000000,-0724,0827,12295,029.7,045.5,0.453,750.2,01.17,0.508
2016-10-07 11:10:00,1582E-3,5C000000,-0724,0827,12010,029.7,045.5,0.454,750.2,01.17,0.508
2016-10-07 11:11:00,1544E-3,5C000000,-0724,0828,12224,029.7,045.5,0.453,750.2,01.17,0.508
2016-10-07 11:12:00,1535E-3,5C000000,-0724,0827,12280,029.7,045.5,0.454,750.2,01.17,0.508
2016-10-07 11:13:00,1603E-3,5C000000,-0724,0828,12247,029.7,045.5,0.453,750.2,01.17,0.508
2016-10-07 11:14:00,1596E-3,5C000000,-0724,0828,12360,029.8,045.5,0.453,750.2,01.17,0.508
2016-10-07 11:15:00,1606E-3,5C000000,-0724,0828,12177,029.8,045.5,0.454,750.2,01.17,0.508
2016-10-07 11:16:00,1604E-3,5C000000,-0724,0829,12301,029.8,045.5,0.453,750.2,01.17,0.508
2016-10-07 11:17:00,1659E-3,5C000000,-0724,0827,12227,029.8,045.5,0.453,750.2,01.17,0.508
2016-10-07 11:18:00,1560E-3,5C000000,-0724,0828,12232,029.8,045.5,0.454,750.2,01.17,0.508
2016-10-07 11:19:00,1665E-3,5C000000,-0724,0827,12197,029.8,045.5,0.453,750.2,01.17,0.508
2016-10-07 11:20:00,1421E-3,5C000000,-0724,0829,12297,029.8,045.5,0.453,750.2,01.17,0.508
2016-10-07 11:21:00,1635E-3,5C000000,-0724,0828,12201,029.9,045.5,0.453,750.2,01.17,0.508
2016-10-07 11:22:00,1566E-3,5C000000,-0724,0826,12177,029.9,045.5,0.453,750.2,01.17,0.508
2016-10-07 11:23:00,1494E-3,5C000000,-0724,0827,12287,029.9,045.5,0.453,750.2,01.17,0.508
2016-10-07 11:24:00,1454E-3,5C000000,-0724,0827,12263,029.9,045.5,0.453,750.2,01.17,0.508
2016-10-07 11:25:00,1654E-3,5C000000,-0724,0827,12229,029.9,045.5,0.453,750.2,01.17,0.508
2016-10-07 11:26:00,1862E-3,5C000000,-0724,0826,12228,029.9,045.5,0.453,750.2,01.17,0.508
2016-10-07 11:27:00,1490E-3,5C000000,-0724,0826,12090,030.0,045.5,0.453,750.2,01.17,0.508
2016-10-07 11:28:00,1755E-3,5C000000,-0724,0827,12182,030.0,045.5,0.453,750.2,01.17,0.508
2016-10-07 11:29:00,1623E-3,5C000000,-0724,0828,12324,030.0,045.5,0.453,750.2,01.17,0.508
2016-10-07 11:30:00,1600E-3,5C000000,-0724,0828,12334,030.0,045.5,0.453,750.2,01.17,0.508
2016-10-07 11:31:00,1554E-3,5C000000,-0724,0827,12233,030.0,045.5,0.453,750.2,01.17,0.508
2016-10-07 11:32:00,1610E-3,5C000000,-0724,0828,12189,030.0,045.5,0.453,750.2,01.17,0.508
2016-10-07 11:33:00,1472E-3,5C000000,-0724,0834,12477,030.0,045.5,0.453,750.2,01.17,0.508
2016-10-07 11:34:00,1468E-3,5C000000,-0724,0831,12643,030.0,045.5,0.453,750.2,01.17,0.508
2016-10-07 11:35:00,1546E-3,5C000000,-0724,0831,12544,030.1,045.5,0.453,750.2,01.17,0.508
2016-10-07 11:36:00,1563E-3,5C000000,-0724,0830,12316,030.1,045.5,0.453,750.2,01.17,0.508
2016-10-07 11:37:00,1647E-3,5C000000,-0724,0828,12294,030.1,045.5,0.453,750.2,01.17,0.508
2016-10-07 11:38:00,1691E-3,5C000000,-0724,0829,12351,030.1,045.5,0.453,750.2,01.17,0.508
2016-10-07 11:39:00,1710E-3,5C000000,-0724,0831,11360,030.1,045.5,0.453,750.2,01.17,0.508
2016-10-07 11:40:00,1450E-3,5C000000,-0724,0827,12275,030.1,045.5,0.453,750.2,01.17,0.508
2016-10-07 11:41:00,1624E-3,5C000000,-0724,0829,12272,030.1,045.5,0.453,750.1,01.17,0.508
2016-10-07 11:42:00,1611E-3,5C000000,-0724,0827,12173,030.2,045.5,0.453,750.1,01.17,0.508
2016-10-07 11:43:00,1491E-3,5C000000,-0724,0826,12273,030.2,045.5,0.452,750.2,01.17,0.508
2016-10-07 11:44:00,1656E-3,5C000000,-0724,0827,12188,030.2,045.5,0.453,750.1,01.17,0.508
2016-10-07 11:45:00,1532E-3,5C000000,-0724,0827,12087,030.2,045.5,0.453,750.1,01.17,0.508
2016-10-07 11:46:00,1593E-3,5C000000,-0724,0829,12266,030.2,045.5,0.452,750.1,01.17,0.508
2016-10-07 11:47:00,1602E-3,5C000000,-0724,0827,12293,030.2,045.5,0.453,750.1,01.17,0.508
2016-10-07 11:48:00,1608E-3,5C000000,-0724,0828,11230,030.2,045.5,0.453,750.1,01.17,0.508
2016-10-07 11:49:00,1422E-3,5C000000,-0724,0830,12316,030.3,045.5,0.452,750.1,01.17,0.508
2016-10-07 11:50:00,1570E-3,5C000000,-0724,0826,12350,030.3,045.5,0.453,750.1,01.17,0.508
2016-10-07 11:51:00,1603E-3,5C000000,-0724,0827,12205,030.3,045.5,0.453,750.1,01.17,0.508
2016-10-07 11:52:00,1580E-3,5C000000,-0724,0828,12279,030.3,045.5,0.452,750.1,01.17,0.508
2016-10-07 11:53:00,1609E-3,5C000000,-0724,0826,12166,030.3,045.5,0.452,750.1,01.17,0.508
2016-10-07 11:54:00,1548E-3,5C000000,-0724,0829,12352,030.3,045.5,0.453,750.1,01.17,0.508
2016-10-07 11:55:00,1489E-3,5C000000,-0724,0828,12323,030.3,045.5,0.452,750.1,01.17,0.508
2016-10-07 11:56:00,1531E-3,5C000000,-0724,0828,12343,030.3,045.5,0.452,750.1,01.17,0.508
2016-10-07 11:57:00,1600E-3,5C000000,-0724,0827,12196,030.4,045.5,0.453,750.1,01.17,0.508
2016-10-07 11:58:00,1662E-3,5C000000,-0724,0827,12330,030.4,045.5,0.452,750.1,01.17,0.508
2016-10-07 11:59:00,1665E-3,5C000000,-0724,0827,12319,030.4,045.5,0.452,750.1,01.17,0.508
2016-10-07 12:00:00,1509E-3,5C000000,-0724,0827,12051,030.4,045.5,0.452,750.1,01.17,0.508
2016-10-07 12:01:00,1587E-3,5C000000,-0724,0828,12293,030.4,045.5,0.453,750.1,01.17,0.508
2016-10-07 12:02:00,1537E-3,5C000000,-0724,0828,12374,030.4,045.5,0.452,750.1,01.17,0.508
2016-10-07 12:03:00,1481E-3,5C000000,-0724,0828,12407,030.4,045.5,0.452,750.1,01.17,0.508
2016-10-07 12:04:00,1494E-3,5C000000,-0724,0826,12103,030.5,045.5,0.453,750.0,01.17,0.508
2016-10-07 12:05:00,1598E-3,5C000000,-0724,0827,12069,030.5,045.5,0.452,750.0,01.17,0.508
2016-10-07 12:06:00,1501E-3,5C000000,-0724,0827,12231,030.5,045.5,0.452,750.0,01.17,0.508
2016-10-07 12:07:00,1669E-3,5C000000,-0724,0828,12146,030.5,045.5,0.452,750.0,01.17,0.508
2016-10-07 12:08:00,1575E-3,5C000000,-0724,0827,12400,030.5,045.5,0.453,750.0,01.17,0.508
2016-10-07 12:09:00,1664E-3,5C000000,-0724,0828,12070,030.5,045.6,0.452,750.0,01.17,0.508
2016-10-07 12:10:00,1741E-3,5C000000,-0724,0827,12007,030.5,045.5,0.452,750.0,01.17,0.508
2016-10-07 12:11:00,1809E-3,5C000000,-0724,0827,12175,030.5,045.5,0.453,750.0,01.17,0.508
2016-10-07 12:12:00,1756E-3,5C000000,-0724,0830,11136,030.5,045.5,0.452,750.0,01.17,0.508
2016-10-07 12:13:00,1897E-3,5C000000,-0724,0828,12186,030.6,045.5,0.452,750.0,01.17,0.508
2016-10-07 12:14:00,1706E-3,5C000000,-0724,0829,12241,030.6,045.5,0.452,750.0,01.17,0.508
2016-10-07 12:15:00,1653E-3,5C000000,-0724,0827,12331,030.6,045.5,0.453,749.9,01.17,0.508
2016-10-07 12:16:00,1761E-3,5C000000,-0724,0828,12224,030.6,045.5,0.452,749.9,01.17,0.508
2016-10-07 12:17:00,1766E-3,5C000000,-0724,0826,12191,030.6,045.5,0.452,749.9,01.17,0.508
2016-10-07 12:18:00,1722E-3,5C000000,-0724,0827,12239,030.6,045.5,0.452,749.9,01.17,0.508
2016-10-07 12:19:00,1669E-3,5C000000,-0724,0827,12292,030.6,045.6,0.452,749.9,01.17,0.508
2016-10-07 12:20:00,1786E-3,5C000000,-0724,0827,12267,030.6,045.5,0.452,750.0,01.17,0.508
2016-10-07 12:21:00,1736E-3,5C000000,-0724,0827,12233,030.6,045.5,0.452,749.9,01.17,0.508
2016-10-07 12:22:00,1723E-3,5C000000,-0724,0827,12146,030.7,045.5,0.452,749.9,01.17,0.508
2016-10-07 12:23:00,1661E-3,5C000000,-0724,0827,12084,030.7,045.5,0.452,749.9,01.17,0.508
2016-10-07 12:24:00,1723E-3,5C000000,-0724,0827,12221,030.7,045.5,0.452,749.9,01.17,0.508
2016-10-07 12:25:00,1713E-3,5C000000,-0724,0827,12120,030.7,045.5,0.452,749.9,01.17,0.508
2016-10-07 12:26:00,1581E-3,5C000000,-0724,0827,12181,030.7,045.5,0.452,749.9,01.17,0.508
2016-10-07 12:27:00,1580E-3,5C000000,-0724,0826,12272,030.7,045.5,0.452,749.9,01.17,0.508
2016-10-07 12:28:00,1711E-3,5C000000,-0724,0827,12171,030.7,045.5,0.452,749.8,01.17,0.508
2016-10-07 12:29:00,1687E-3,5C000000,-0724,0827,12034,030.7,045.5,0.452,749.8,01.17,0.508
2016-10-07 12:30:00,1759E-3,5C000000,-0724,0827,12156,030.7,045.5,0.451,749.9,01.17,0.508
2016-10-07 12:31:00,1715E-3,5C000000,-0724,0827,12113,030.8,045.5,0.452,749.9,01.17,0.508
2016-10-07 12:32:00,1760E-3,5C000000,-0724,0827,12139,030.8,045.5,0.452,749.9,01.17,0.508
2016-10-07 12:33:00,1812E-3,5C000000,-0724,0827,12268,030.8,045.5,0.452,749.8,01.17,0.508
2016-10-07 12:34:00,1794E-3,5C000000,-0724,0826,12155,030.8,045.5,0.452,749.8,01.17,0.508
2016-10-07 12:35:00,1648E-3,5C000000,-0724,0826,12286,030.8,045.5,0.452,749.9,01.17,0.508
2016-10-07 12:36:00,1657E-3,5C000000,-0724,0826,12211,030.8,045.6,0.452,749.9,01.17,0.508
2016-10-07 12:37:00,1807E-3,5C000000,-0724,0827,12294,030.8,045.5,0.451,749.9,01.17,0.508
2016-10-07 12:38:00,1774E-3,5C000000,-0724,0826,12311,030.8,045.5,0.452,749.9,01.17,0.508